Location: *
(48.4333°N, 5.0333°W)
Time: 22:09:43
(UTC+00:00)

STARLINK-1205 - Pass Details

Date: 09 April 2020
Orbit: 548 x 551 km, 53.0° (Epoch: 26 May)

Event Time Altitude Azimuth Distance (km) Brightness Sun altitude
Rises 20:10:23 0° 295° (WNW) 2,735 9.4 -11.3°
Reaches altitude 10° 20:12:41 10° 289° (WNW) 1,838 7.8 -11.7°
Maximum altitude 20:16:41 46° 216° (SW) 747 4.3 -12.3°
Enters shadow 20:19:43 16° 148° (SSE) 1,476 5.3 -12.7°
